CAPE
28 48 56 137 403 668 750 898 926 760 648 646 428 325 370 483 300 342 471 613 660 440 458 391 259 322 340 543 501 587 226 253 663 0 366 466 754 859 1099 1125 1132 1181 1214
12 95 87 224 345 466 585 809 871 865 652 778 831 835 558 468 345 459 462 635 565 513 740 776 973 690 107 756 653 544 685 633 486 170 435 335 196 525 917 730 592 545 601
95 248 249 278 416 453 483 613 736 685 734 635 752 745 751 745 693 597 641 588 638 679 1017 1130 950 784 801 684 707 1301 1218 1092 994 785 475 252 140 377 527 762 743 883 728
181 373 397 406 390 427 467 550 574 634 779 658 697 686 722 704 721 896 1127 1074 1146 1075 1190 1231 1135 887 881 1123 1389 1551 1481 1251 989 1028 1074 978 691 232 37 414 605 669 672
252 360 449 475 518 513 457 503 658 659 688 758 790 906 882 668 782 787 701 1149 1217 1342 1380 1331 1202 1124 1396 1386 1278 1452 1535 1543 1325 614 302 375 128 118 266 42 10 476 561
210 293 421 570 560 587 545 545 645 678 687 765 812 828 907 1111 1131 1212 1231 1111 1338 1551 1489 1416 1404 1498 1608 1542 1383 1389 1463 1475 1333 907 727 153 0 0 5 266 113 538 188
185 238 290 430 593 659 641 678 740 734 799 783 836 951 1073 1150 1192 1416 1370 1355 1164 1422 1565 1615 1566 1717 1737 1609 1494 1435 1514 1561 1254 965 371 92 14 68 242 482 473 357 49
184 208 284 379 603 723 846 859 842 863 903 886 935 1071 1209 1313 1376 1484 1633 1531 1531 1826 1756 1641 1604 1602 1562 1511 1607 1532 1438 1305 956 559 170 0 59 167 443 591 468 214 175
281 285 317 339 557 680 809 940 1017 1062 1085 1031 1063 1111 1257 1339 1382 1589 1858 1901 2112 2044 1988 1945 1853 1871 1768 1572 1449 1312 1185 809 396 170 44 17 95 401 534 388 94 52 54
269 295 354 351 405 661 882 984 1152 1215 1268 1246 1312 1291 1332 1437 1591 1678 1627 1814 1893 1876 1887 1970 1905 1580 1211 918 413 120 132 242 239 52 41 54 127 319 298 187 43 0 0
128 361 394 363 374 477 733 945 1120 1203 1295 1303 1394 1374 1504 1594 1638 1713 1946 2034 2048 2212 2284 2134 1514 1110 923 368 52 62 180 190 120 16 8 26 40 63 69 77 48 12 0
216 374 474 559 638 805 930 1047 1130 1244 1388 1575 1615 1661 1762 1854 1888 1680 1440 1368 1443 1039 1296 1103 886 501 328 259 182 49 0 4 0 118 183 72 26 12 39 49 33 35 48
395 574 881 1093 1252 1405 1530 1639 1692 1674 1708 1783 1764 1673 1582 1398 938 650 505 462 555 580 201 120 72 1 0 4 8 11 16 111 98 146 225 107 113 158 68 1 0 0 2
818 998 1077 1251 1339 1327 1385 1451 1551 1697 1689 1536 1345 1073 712 381 185 79 26 5 1 1 3 2 2 4 3 3 2 27 96 200 229 240 310 387 377 318 270 120 6 0 0
992 1105 1086 1212 1248 1267 1267 1262 1214 1209 1106 883 550 252 18 0 0 0 0 0 0 2 2 1 0 1 4 4 0 1 64 46 66 36 38 81 94 96 127 169 148 81 7
1103 1168 1215 1349 1391 1345 1350 1142 885 590 326 144 6 0 0 0 0 0 0 5 2 1 0 4 4 4 4 4 1 0 0 1 1 1 2 2 4 2 33 105 111 26 102
1073 1120 1307 1387 1407 1312 1005 702 254 11 0 0 0 0 0 0 0 0 2 3 1 0 0 0 1 1 3 0 1 2 3 4 3 3 2 1 3 4 3 6 2 2 0
1219 1474 1461 1341 1099 730 382 30 0 0 0 0 0 0 0 0 0 0 0 1 1 2 1 0 0 1 1 0 1 1 2 4 4 4 4 2 3 3 3 0 0 0 0
1530 1463 1238 865 639 299 2 0 0 0 0 0 0 0 0 0 0 0 1 1 0 0 0 0 0 0 0 0 0 0 1 0 0 0 0 0 0 0 0 1 1 0 1
1502 1310 698 374 199 6 0 0 0 0 0 0 0 0 0 0 0 0 0 0 0 0 0 0 0 0 0 0 0 0 0 0 0 0 0 0 0 0 0 0 0 0 1
1000 287 161 112 38 0 0 0 0 0 0 0 0 0 0 0 0 0 0 0 0 0 0 2 3 3 1 1 0 0 0 0 1 4 7 7 0 0 0 0 0 0 1
140 86 38 1 0 0 0 0 0 0 0 0 0 0 0 0 0 0 0 0 0 0 0 0 0 0 0 0 0 0 0 0 6 9 5 3 0 0 0 0 0 0 0
8 1 0 0 0 0 0 0 0 0 0 0 0 0 0 0 0 0 0 0 0 0 0 0 0 0 0 0 0 0 0 0 0 0 0 0 0 0 0 0 0 0 0
0 0 0 0 0 0 0 0 0 0 0 0 0 0 0 0 0 0 0 0 0 0 0 0 0 0 0 0 0 0 0 0 0 0 0 0 0 0 0 0 0 0 0
0 0 0 0 0 0 0 0 0 0 0 0 0 0 0 0 0 0 0 0 0 0 0 0 0 0 0 0 0 0 0 0 0 0 0 0 0 0 0 0 0 0 0
0 0 0 0 0 15 0 0 0 0 0 0 0 0 0 0 0 0 0 0 0 0 0 0 0 0 0 0 0 0 0 0 0 0 0 0 0 2 3 3 2 4 5
CIN
-69 -101 -100 -120 -134 -130 -107 -97 -81 -74 -51 -50 -61 -76 -56 -45 -67 -74 -52 -44 -32 -34 -38 -35 -49 -42 -54 -38 -25 -30 -79 -35 -28 0 -40 -21 -31 -36 -41 -44 -40 -39 -32
-22 -118 -120 -113 -139 -127 -125 -118 -102 -94 -76 -55 -41 -44 -43 -54 -50 -44 -47 -40 -45 -53 -42 -35 -26 -42 -126 -43 -21 -42 -21 -16 -44 -96 -16 -4 -25 -37 -26 -46 -56 -65 -53
-44 -75 -114 -117 -121 -126 -117 -125 -126 -120 -101 -88 -68 -72 -64 -60 -43 -48 -47 -43 -46 -46 -39 -29 -27 -37 -40 -27 -16 -14 -9 -2 -6 -9 -2 -18 -23 -9 -14 -24 -28 -26 -38
-58 -67 -94 -115 -121 -117 -137 -129 -148 -138 -117 -117 -78 -68 -44 -39 -39 -31 -35 -36 -44 -45 -36 -34 -36 -42 -39 -33 -20 -7 -8 -4 -1 0 0 0 0 -20 -86 -6 -5 -26 -39
-50 -57 -68 -92 -138 -154 -146 -127 -125 -153 -139 -121 -97 -68 -48 -47 -46 -54 -64 -54 -52 -55 -48 -52 -48 -43 -32 -33 -25 -14 -10 0 0 0 -4 -5 -29 -43 -18 -62 -36 -1 -10
-89 -82 -109 -149 -158 -202 -181 -163 -159 -133 -154 -147 -130 -111 -79 -46 -37 -40 -46 -44 -41 -39 -49 -48 -49 -36 -27 -25 -22 -22 -22 -12 -4 -1 -1 -47 0 0 0 -23 -7 -3 -14
-119 -122 -139 -144 -160 -194 -191 -194 -192 -157 -158 -153 -127 -113 -91 -76 -67 -48 -41 -36 -19 -19 -17 -41 -38 -36 -36 -37 -39 -36 -23 -13 -10 -15 -58 -146 -94 -71 -18 -1 0 0 -41
-110 -125 -137 -150 -164 -185 -220 -218 -206 -197 -178 -169 -153 -131 -92 -72 -65 -55 -37 -32 -28 -18 -35 -38 -39 -38 -38 -39 -40 -32 -27 -23 -23 -43 -107 0 -150 -53 -7 0 0 -3 -9
-89 -104 -144 -185 -181 -205 -212 -211 -197 -195 -169 -152 -144 -131 -108 -94 -63 -49 -37 -27 -28 -25 -30 -38 -37 -35 -37 -37 -35 -33 -30 -46 -63 -107 -140 -197 -101 -23 -2 -5 -62 -45 -48
-108 -121 -138 -173 -230 -247 -245 -266 -244 -212 -178 -155 -134 -116 -100 -88 -60 -53 -42 -32 -39 -38 -36 -31 -31 -45 -54 -71 -97 -127 -113 -71 -47 -78 -110 -144 -97 -27 -34 -61 -128 0 0
-193 -154 -185 -243 -282 -325 -309 -318 -287 -252 -218 -204 -170 -156 -111 -94 -82 -62 -40 -33 -36 -16 -9 -16 -54 -68 -54 -109 -176 -142 -84 -57 -32 -46 -89 -112 -153 -134 -123 -121 -141 -161 0
-191 -207 -252 -283 -304 -315 -315 -296 -283 -234 -228 -197 -177 -152 -133 -111 -77 -89 -103 -95 -77 -113 -76 -84 -92 -117 -104 -82 -79 -102 -5 -2 -1 -31 -20 -62 -119 -184 -130 -123 -146 -125 -127
-199 -232 -274 -273 -291 -310 -319 -283 -244 -222 -198 -191 -173 -170 -161 -160 -199 -231 -237 -219 -180 -152 -232 -254 -211 -50 0 -39 -26 -19 -11 -51 -71 -39 -17 -55 -57 -53 -90 -14 0 -39 -132
-199 -213 -264 -309 -371 -403 -379 -341 -301 -259 -230 -223 -223 -237 -281 -360 -426 -474 -262 -223 0 0 0 0 0 0 0 0 0 -45 -52 -9 -5 -7 -5 -9 -15 -27 -42 -69 -46 0 0
-182 -242 -277 -363 -408 -406 -391 -371 -350 -312 -291 -306 -371 -489 -152 0 0 0 0 0 0 0 0 0 0 0 0 0 0 0 -71 -118 -111 -174 -168 -103 -99 -91 -74 -53 -37 -45 -97
-225 -314 -408 -407 -386 -378 -352 -354 -380 -454 -563 -657 -519 0 0 0 0 0 0 0 0 0 -1 0 0 0 0 0 0 0 0 0 0 0 0 0 0 0 -189 -109 -91 -137 -47
-313 -361 -404 -392 -375 -363 -395 -461 -670 -622 0 0 0 0 0 0 0 0 0 0 0 0 0 0 0 0 0 0 0 0 0 0 0 0 0 0 0 0 0 0 0 0 0
-365 -416 -418 -413 -420 -490 -623 -372 0 0 0 0 0 0 0 0 0 0 0 0 0 0 0 0 0 0 0 0 0 0 0 0 0 0 0 0 0 0 0 0 0 0 0
-457 -443 -457 -498 -527 -639 -40 0 0 0 0 0 0 0 0 0 0 0 0 0 0 0 0 0 0 0 0 0 0 0 0 0 0 0 0 0 0 0 0 0 0 0 0
-439 -449 -559 -627 -666 -436 0 0 0 0 0 0 0 0 0 0 0 0 0 0 0 0 0 0 0 0 0 0 0 0 0 0 0 0 0 0 0 0 0 0 0 0 0
-506 -716 -746 -741 -853 0 0 0 0 0 0 0 0 0 0 0 0 0 0 0 0 0 0 0 0 0 0 0 0 0 0 0 -1 -1 0 0 0 0 0 0 0 0 0
-839 -872 -905 -370 0 0 0 0 0 0 0 0 0 0 0 0 0 0 0 0 0 0 0 0 0 0 0 0 0 0 0 0 0 0 0 0 0 0 0 0 0 0 0
-946 -105 0 0 0 0 0 0 0 0 0 0 0 0 0 0 0 0 0 0 0 0 0 0 0 0 0 0 0 0 0 0 0 0 0 0 0 0 0 0 0 0 0
0 0 0 0 0 0 0 0 0 0 0 0 0 0 0 0 0 0 0 0 0 0 0 0 0 0 0 0 0 0 0 0 0 0 0 0 0 0 0 0 0 0 0
0 0 0 0 0 0 0 0 0 0 0 0 0 0 0 0 0 0 0 0 0 0 0 0 0 0 0 0 0 0 0 0 0 0 0 0 0 0 0 0 0 0 0
0 0 0 0 0 -607 0 0 0 0 0 0 0 0 0 0 0 0 0 0 0 0 0 0 0 0 0 0 0 0 0 0 0 0 0 0 0 -4 -4 -2 -2 -2 -6
Wind_Speed
17 19 20 19 20 20 20 20 20 21 23 21 20 20 21 21 20 20 20 20 21 21 22 22 22 22 23 25 25 24 25 25 24 28 26 26 27 28 14 13 15 7 3
18 20 21 22 20 20 20 20 20 20 21 21 19 20 20 19 20 20 21 20 21 21 21 21 22 20 15 23 24 21 22 24 22 17 27 25 24 19 20 18 18 20 16
19 21 22 22 22 21 20 20 21 21 21 21 21 19 19 18 17 19 19 20 20 20 18 15 9 8 6 7 8 17 17 22 19 14 17 23 19 30 19 21 19 21 20
20 22 22 22 22 22 21 20 22 22 21 20 21 20 18 18 17 17 16 16 16 16 15 12 8 6 7 8 11 14 15 16 19 18 15 15 18 21 25 20 24 24 22
21 22 22 22 21 22 22 22 22 22 22 21 20 20 19 18 16 16 15 15 13 12 11 9 6 6 6 8 10 13 14 16 18 18 19 19 18 18 19 25 27 26 22
21 21 21 21 21 22 22 22 23 22 22 21 21 20 19 18 17 17 16 15 13 12 11 9 7 6 5 6 9 10 11 14 16 18 18 19 20 20 20 23 25 25 22
21 21 22 23 22 22 23 23 22 22 21 21 20 20 19 18 17 16 15 15 12 11 8 7 6 7 9 9 12 13 13 14 15 16 19 20 20 19 18 20 23 24 24
21 22 22 23 23 22 22 22 21 21 20 19 19 18 18 17 16 14 14 12 8 6 8 5 5 3 1 7 9 15 17 19 18 18 20 20 19 19 19 19 22 25 23
22 23 23 23 22 22 21 21 20 19 19 19 18 17 16 16 15 14 12 12 8 8 4 3 5 8 9 9 10 11 12 18 22 21 20 20 21 19 19 19 19 22 25
23 24 23 22 21 20 19 18 17 17 16 16 16 15 14 13 12 12 11 9 9 3 3 3 5 6 8 12 14 17 17 19 18 18 20 22 22 22 21 21 20 19 22
23 22 22 21 20 19 18 18 16 15 14 14 13 12 11 10 8 7 4 3 3 3 3 4 7 12 13 17 18 20 20 20 19 13 5 9 16 24 24 21 19 18 19
19 21 21 21 20 19 18 18 17 16 14 13 12 10 9 7 6 10 15 18 18 22 18 15 13 15 16 18 16 15 15 14 16 15 14 17 17 16 21 19 18 18 16
12 12 22 21 21 21 20 19 18 17 16 15 15 15 16 17 19 21 23 23 23 23 23 23 21 21 21 20 18 16 14 14 13 13 15 19 19 18 19 20 21 19 18
15 17 18 18 17 16 17 17 17 17 17 17 17 17 19 19 20 21 22 23 24 24 24 22 22 21 22 22 20 19 19 18 15 14 13 13 16 17 18 19 19 18 19
18 16 14 15 16 15 16 16 17 18 18 19 19 19 20 20 21 22 23 23 24 24 24 24 24 24 25 26 24 21 21 21 21 22 21 19 18 15 12 11 13 14 16
15 13 13 13 14 15 16 17 18 18 19 19 20 20 21 22 22 23 24 24 25 25 25 26 26 26 27 28 27 25 24 25 26 27 27 27 27 26 23 20 15 15 15
13 13 12 13 14 15 16 17 18 18 19 20 21 21 22 23 23 24 25 25 26 26 27 27 27 29 29 29 29 28 27 27 28 29 29 28 29 28 25 23 22 21 20
15 15 14 14 14 15 16 17 18 19 20 21 21 22 22 23 24 25 26 26 26 27 27 27 27 27 29 28 28 28 28 28 29 30 30 30 30 30 27 24 23 22 22
16 16 15 15 15 16 17 18 19 19 20 21 21 22 22 23 23 24 25 25 26 26 26 26 27 27 28 29 29 28 27 28 29 29 30 30 31 31 27 25 23 22 23
15 16 16 16 16 17 18 19 19 19 20 21 21 21 22 23 23 24 24 24 25 25 25 26 26 27 27 29 30 29 28 29 28 29 30 32 31 31 30 27 25 25 24
17 17 17 17 18 18 19 19 19 20 20 21 21 22 23 23 23 23 23 23 23 23 24 25 25 26 27 28 29 29 28 27 27 28 29 30 31 29 29 27 26 24 23
18 18 18 18 19 19 19 19 19 19 20 20 21 21 21 22 22 22 22 22 22 23 24 24 25 26 27 29 29 29 29 27 28 29 29 29 29 28 29 28 27 25 25
21 20 19 19 19 19 19 19 18 19 19 19 19 20 20 20 20 20 21 22 23 24 24 25 25 26 27 28 29 30 30 30 29 28 28 29 29 28 28 29 29 28 27
22 20 19 19 19 19 18 18 18 18 18 18 18 18 18 19 19 20 21 22 23 24 24 25 25 25 26 27 28 28 29 29 29 29 29 28 28 28 28 28 28 28 27
20 19 19 17 18 19 17 18 18 18 17 17 17 17 18 18 18 19 20 21 21 22 23 24 25 25 25 25 26 27 27 28 28 27 28 29 30 30 30 30 30 29 28
19 18 17 17 17 18 17 16 16 16 16 16 16 16 16 17 17 17 18 19 19 21 21 22 23 24 23 23 24 25 25 26 25 27 28 28 28 29 29 30 30 29 28
Wind_Direction
180 166 163 153 147 149 150 148 147 154 174 175 169 197 189 195 194 199 203 211 214 216 229 250 256 258 272 275 278 296 298 299 315 302 283 274 273 281 346 349 342 17 37
167 148 152 152 147 144 149 151 154 149 157 162 158 173 189 192 208 212 208 206 214 218 220 222 249 302 341 262 283 329 335 326 338 3 292 312 318 335 335 339 338 336 349
173 151 146 154 157 153 143 146 157 153 151 156 162 164 178 195 191 202 204 203 209 208 196 188 149 36 91 178 33 359 360 344 352 1 349 328 339 312 333 331 337 336 339
165 157 150 154 155 162 157 152 160 158 151 151 165 162 162 176 184 188 188 189 188 188 182 170 145 103 49 42 28 13 12 8 356 354 354 348 340 336 323 332 324 326 329
167 163 162 162 160 158 159 167 165 162 161 159 162 169 175 177 182 179 183 170 167 164 161 147 116 89 63 36 20 7 4 359 355 352 349 345 339 336 333 323 319 322 330
165 168 171 166 166 163 166 169 170 171 169 168 170 172 178 180 182 185 185 183 180 171 161 146 132 103 59 33 14 6 1 356 352 348 349 345 339 334 329 324 321 322 328
167 165 160 158 160 157 159 164 168 173 171 169 171 174 178 178 179 184 189 194 193 189 151 111 69 37 16 7 356 349 344 343 342 343 339 336 337 337 335 328 323 319 322
162 163 165 162 162 160 160 162 166 172 173 173 173 174 178 182 185 186 190 191 176 166 188 93 61 74 124 16 3 346 335 331 329 330 331 331 334 334 335 329 323 319 320
161 158 160 161 162 163 163 162 165 171 175 178 178 177 180 185 192 195 193 204 191 200 183 43 13 4 0 360 3 359 350 337 327 320 322 322 322 329 328 331 330 321 317
166 161 161 161 160 162 162 160 162 166 169 172 175 178 180 184 194 203 208 213 223 242 323 322 333 341 348 353 352 353 349 344 342 332 319 313 313 317 322 323 326 324 316
179 174 165 160 155 151 151 152 151 151 150 153 158 164 168 172 176 185 179 200 227 360 337 334 347 351 352 348 345 346 345 345 350 360 20 354 332 313 316 323 324 324 318
192 178 168 158 148 142 140 139 138 137 134 126 121 119 121 114 96 35 11 1 360 348 357 359 358 355 349 345 344 345 350 353 354 359 350 341 344 336 322 326 325 323 322
224 218 125 107 106 104 106 113 120 118 105 94 78 54 35 20 7 1 356 354 354 358 357 357 0 0 359 360 4 6 6 4 6 3 352 342 341 335 331 326 323 321 322
76 78 78 73 63 51 52 42 48 65 62 55 45 33 23 19 16 12 7 3 4 4 6 10 12 11 5 6 6 8 8 9 11 8 1 354 348 341 337 332 326 322 319
94 85 65 66 62 46 33 25 28 36 42 40 38 36 30 25 22 18 14 12 9 9 10 14 14 11 2 359 3 12 10 7 7 3 0 359 353 349 341 330 330 327 322
103 75 61 55 49 44 37 35 35 34 39 38 39 41 36 32 28 24 20 17 17 18 20 21 22 18 9 359 4 11 9 6 0 353 350 349 345 343 344 343 337 328 321
106 91 71 62 52 47 49 44 42 41 40 40 40 40 37 35 36 38 36 32 27 27 25 26 29 24 18 14 17 20 20 17 13 9 5 4 359 353 354 353 348 344 340
116 104 87 71 58 52 50 49 45 45 44 44 44 44 43 41 42 42 36 32 29 26 24 23 24 24 16 15 19 20 23 21 18 16 13 11 9 8 10 9 6 1 0
110 101 87 77 66 60 59 56 51 50 48 46 49 49 49 50 47 42 40 38 36 30 25 22 20 20 15 11 14 20 21 18 15 13 10 9 7 5 6 9 9 6 0
105 99 90 79 73 74 71 65 61 56 53 53 54 56 58 57 54 50 46 45 41 37 34 30 27 23 17 9 10 17 19 17 17 16 15 12 11 8 7 8 3 357 356
111 100 92 87 86 84 80 74 70 63 62 62 60 59 60 58 56 54 50 48 44 41 36 31 25 21 15 12 14 16 18 18 18 16 14 11 9 10 11 14 14 10 8
112 106 97 91 90 90 85 79 73 72 69 64 61 60 59 57 55 53 51 48 44 38 32 30 27 24 21 17 17 19 22 22 22 19 17 17 16 17 13 11 8 7 3
118 113 102 95 93 93 88 80 78 77 73 66 62 59 58 55 54 51 49 46 41 37 34 32 29 30 26 24 23 23 23 26 27 25 24 22 20 18 15 10 6 6 1
124 117 108 104 99 98 89 81 83 80 75 70 63 60 56 54 53 53 50 45 41 40 38 34 30 29 27 27 26 26 28 28 29 28 26 25 24 22 19 15 13 11 8
127 122 117 107 104 104 93 88 84 81 74 67 59 55 54 52 52 52 48 47 46 43 40 37 33 28 28 31 33 33 32 32 30 31 28 24 22 18 14 12 11 10 6
132 126 120 112 110 108 97 92 90 83 74 66 58 56 52 51 54 56 51 47 49 45 43 40 36 37 37 36 34 32 31 29 29 25 22 20 16 12 8 5 3 3 2